CZ-6A DEB, 54529

Orbit data source: Space-Track

CZ-6A DEB, 54529 is space debris in SSO originally from a launch on Fri, 11 Nov 2022 UTC launched from the Taiyaun Space Center, China (TSC). Debris objects in space refer to the collection of defunct objects orbiting the Earth. Examples of debris include non-operational satellites, rocket bodies, and fragments generated from explosions, collisions, or faulty payload assembly.

Loading next visibility...
Identifier
54529, 2022-151KH
Orbit
SSO
Country
Flag of CNCN / PRC
Related business
Manufacturer
SAST
Mission
Spacecraft
Bus & Motor
Unknown
Mass
Unknown
Launch date (UTC)
2022-11-11 (3 years ago)
Launch vehicle
Unknown
Launch site
Taiyaun Space Center, China (TSC)
Object type
Payload
Rocket body
Debris
Shape & HBR
Unknown shape, 0.4 m
Radar Cross Section
Medium (>0.1 m² and <1 m²)

Expand to show TLE details & history
Last TLE update: 9 hours ago

TLE from 9 hours ago
0 CZ-6A DEB
1 54529U 22151KH  25349.93420422  .00000187  00000-0  13069-3 0  9993
2 54529  98.8310 346.1899 0046221 126.3417 234.2033 14.09333238158866
Epoch: 2025-12-15T22:25Z
TLE epoch observation values (Epoch: 2025-12-15T22:25:15.244Z)
Latitude
-0.00001°
Longitude
-74.94926°
Altitude
884.229 km
Speed
7.4 km/s
True Right ascension
23h 04m 45s
True Declination
0° 00' 00"
Sunlit
Object was in daylight at epoch
Visualization orbit readout
Latitude
Unknown
Longitude
Unknown
Altitude
Unknown
Speed
Unknown
Apparent Right ascension
Unknown
Apparent Declination
Unknown
Sunlit
N/A
Visualization observer readout
Local Sidereal Time
06:12:53
Azimuth
Unknown
Elevation
Unknown
Doppler factor
Unknown
Orbital elements
Apogee altitude
892.283 km
Perigee altitude
825.383 km
Semi-major axis
7,236.97 km
Eccentricity
0.00462
Inclination
98.831°
RAAN
346.1899°
Arg. of periapsis
126.3417°
True anomaly
233.77515°
Mean anomaly
234.2033°
Eccentric anomaly
233.98908°
Mean motion
3.5254 °/min
Orbital period
102.12 mins
BSTAR
0.00013069
Loading maneuver chart data...
Computing Atmospheric mass density...
Loading historical data...
Loading historical data...
Loading historical data...
Loading historical data...
Loading historical data...
Loading historical data...
Loading historical data...

Documentation

Showing up to 5 results
|